Regional Weather Roundup
Issued by NWS San Diego, CA

Home | Current Version | Previous Version | Text Only | Print | Product List | Glossary On
Versions: 1 2 3 4 5 6 7 8 9 10 11 12 13 14 15 16 17 18 19 20 21 22 23 24 25 26 27 28 29 30 31 32 33 34 35 36 37 38 39 40 41 42 43 44 45 46 47 48 49 50
000
ASUS46 KSGX 172310
RWRSGX

SAN DIEGO HOURLY WEATHER ROUNDUP
NATIONAL WEATHER SERVICE SAN DIEGO CA
300 PM PST WED DEC 17 2014

NOTE: "FAIR" INDICATES FEW OR NO CLOUDS BELOW 12,000 FEET WITH NO
SIGNIFICANT WEATHER AND/OR OBSTRUCTIONS TO VISIBILITY.

CAZ042-043-060-061-PZZ750-775-180000-

GREATER SAN DIEGO AREA

CITY           SKY/WX    TMP DP  RH WIND       PRES   REMARKS
LINDBERGH FLD  PTSUNNY   64  47  53 W13       30.10R
POINT LOMA       N/A     62  47  58 W24         N/A
NATIONAL CITY    N/A     64  51  61 SW12      30.10R
CHULA VISTA      N/A     63  52  68 W6        30.02R
IMPERIAL BEACH PTSUNNY   65  50  58 W17       30.10R
BROWN FIELD    MOSUNNY   61  47  59 W10       30.09R
MIRAMAR MCAS   PTSUNNY   63  46  54 W17       30.08R
MONTGOMERY FLD PTSUNNY   62  47  57 W16       30.08R

$$

NORTH SAN DIEGO COUNTY

CITY           SKY/WX    TMP DP  RH WIND       PRES   REMARKS
CAMP PENDLETON MOSUNNY   61  49  64 W6        30.07R
OCEANSIDE AP   MOSUNNY   62  49  62 W12G18    30.07R
OCEANSIDE HBR    N/A     63  53  70 SW3       30.10R
VISTA            N/A     60  50  70 CALM      30.06R
CARLSBAD       MOSUNNY   61  49  64 W8        30.07R
DEL MAR          N/A     63  52  67 NW1       30.11R
LA JOLLA SCRIP   N/A     62  52  69 CALM      30.07R
FALLBROOK        N/A     59  54  82 SW3       30.07R
ESCONDIDO        N/A     60  48  64 W9        30.11R
SAN MARCOS       N/A     60  48  64 W12       30.07R
POWAY            N/A     61  51  70 SW7       30.10R

$$

EAST SAN DIEGO COUNTY

CITY           SKY/WX    TMP DP  RH WIND       PRES   REMARKS
RAMONA         PTSUNNY   54  43  66 W16       30.07R
SANTEE LAKES     N/A     60  50  69 W7        30.10R
JAMUL            N/A     60  50  70 W3        30.09R
DESCANSO N       N/A     47  43  85 W13       30.00R
MT. LAGUNA OBS   N/A     34  34 100 NW20      29.61S WCI  23
CAMPO            N/A     52  41  66 W14G24    30.03R

$$

ORANGE COUNTY AND THE LOS ANGELES BASIN

CITY           SKY/WX    TMP DP  RH WIND       PRES   REMARKS
JOHN WAYNE AP  PTSUNNY   64  45  49 W8        30.05S
LAGUNA BEACH     N/A     62  52  69 CALM      30.02S
LAKE FOREST FR   N/A     58  47  65 SW5       29.97S
SANTA ANA        N/A     64  51  62 W2        30.01R
HUNTINGTON BCH   N/A     62  52  69 W6        30.07S
LOS ALAMITOS   PTSUNNY   63  47  56 W12       30.06R
FULLERTON      MOSUNNY   64  44  48 W9        30.04R
LONG BEACH     PTSUNNY   62  45  53 W12       30.05S
L.A. AP        CLOUDY    60  45  57 W15       30.06S
L.A. DOWNTOWN  PTSUNNY   61  45  55 VRB6      30.05R

$$

THE INLAND EMPIRE

CITY           SKY/WX    TMP DP  RH WIND       PRES   REMARKS
CORONA         PTSUNNY   62  43  49 W5        30.05S
CHINO          PTSUNNY   61  47  59 NW10      30.05S
ONTARIO        CLOUDY    59  46  62 NW8       30.05R
SAN BERNARDINO CLOUDY    57  41  54 SW7       30.05R
RIVERSIDE AP   CLOUDY    60  47  61 VRB3      30.05R
RIV CYN CREST    N/A     59  54  84 W1          N/A
MORENO VALLEY    N/A     58  51  80 W5        29.23R
MARCH ARB      PTSUNNY   57  47  70 SW7       30.05R
HORSETHIEF CYN   N/A     56  46  70 CALM      30.06R
PERRIS           N/A     54  50  85 SW2       30.07R
MENIFEE          N/A     55  51  87 SW3       30.14R
HEMET EAST       N/A     51  42  71 S8        30.07R
FRENCH VALLEY  CLOUDY    55  46  71 W5        30.06S
TEMECULA         N/A     58  49  72 SW9       30.02R

$$

SAN BERNARDINO AND RIVERSIDE COUNTY MOUNTAINS

CITY           SKY/WX    TMP DP  RH WIND       PRES   REMARKS
BIG BEAR AP    CLOUDY    32  27  80 SW6       30.03R WCI  26
ANGELUS OAKS     N/A     34  32  92 CALM      30.05S
PINE COVE        N/A     34  33  97 N2        30.11R

$$

SOUTHERN DESERT INCLUDING THE COACHELLA VALLEY

CITY           SKY/WX    TMP DP  RH WIND       PRES   REMARKS
PALM SPRINGS   MOSUNNY   59  46  62 E3        30.05S
THOUSAND PALMS   N/A     61  48  62 SE2       30.02R
THERMAL        MOSUNNY   60  49  66 VRB5      30.03S
BLYTHE         LGT RAIN  56  50  80 E6        30.03S
IMPERIAL AP    SUNNY     63  51  65 E3        30.02S
EL CENTRO NAS  PTSUNNY   64  49  57 CALM      30.03R
YUMA AZ        MOSUNNY   64  48  56 S5        30.04R
MEXICALI       PTSUNNY   63  52  67 S6        30.03

$$

UPPER DESERT

CITY           SKY/WX    TMP DP  RH WIND       PRES   REMARKS
VICTORVILLE AP CLOUDY    50  37  62 W10       30.04R
HESPERIA         N/A     50  40  67 NW5       30.20R
APPLE VALLEY     N/A     50  37  60 W1        30.09S
PALMDALE       CLOUDY    51  36  56 W20       30.04S
LANCASTER      CLOUDY    49  38  65 W17G29    30.04S
EDWARDS AFB    CLOUDY    51  42  69 SW13      30.01F
DAGGETT        PTSUNNY   52  43  71 CALM      30.03S
29 PALMS N     CLOUDY    53  41  63 CALM      30.10R
NEEDLES        PTSUNNY   58  47  66 SE3       30.03S

$$

REGIONAL REPORTS

CITY           SKY/WX    TMP DP  RH WIND       PRES   REMARKS
SANTA BARBARA  CLOUDY    61  43  51 W10       30.05F
SANDBERG       CLOUDY    42  34  73 N13       30.05S
MT. WILSON       N/A    N/A N/A N/A MISG        N/A
LAS VEGAS NV   CLOUDY    53  39  59 CALM      29.97S
PHOENIX AZ     PTSUNNY   60  44  55 W5        30.04S
TIJUANA        PTSUNNY   61  45  55 W15       30.11R
ENSENADA NW      N/A     65  32  28 W8        30.08R

$$

OFFSHORE ISLANDS

CITY           SKY/WX    TMP DP  RH WIND       PRES   REMARKS
CATALINA ARPT  PTSUNNY   54  43  66 W18G25    30.08S
SAN NICOLAS IS CLOUDY    64  46  52 NW16G26   30.10R

$$

MARINE AND OFFSHORE BUOY REPORTS

STATION/POSITION SKY/WX   TEMP    WIND        PRES    SWELL
                          AIR SEA DIR/SP/G            HT/PER/DIR
                          (F)     (DEG/KT/KT) (MB)    (FT/S/D)
TANNER BANKS               62 65  320/ 17/ 19 1019.5R   8/310/14
S CLEMENTE BASIN           62 65  300/ 17/ 19 1018.9R   5/280/15
SAN NICOLAS IS.               62                N/A     7/300/13
SO. S. ROSA ISLA           61 62  320/ 12/ 16 1018.7F   8/13
W. S. BARBARA CH           58 61  360/  6/  8 1018.3F  10/290/12
S. MONICA BASIN            61 64  290/ 19/ 25 1018.1F   5/270/15
S PEDRO CHANNEL               65                N/A     3/260/14
DANA POINT                    64                N/A     3/280/14
CMP PENDLETON NS              65                N/A     2/240/15
OCEANSIDE OFFSHR              65                N/A     3/260/12
TORREY PINES OTR              65                N/A     3/280/14
LA JOLLA 1                 63 64  280/ 14/ 16 1019.0R
MISSION BAY BUOY              65                N/A     3/260/14
SAN DIEGO BAY                 65              1019.4S
POINT LOMA SOUTH              65                N/A     3/230/15

$$




USA.gov is the U.S. government's official web portal to all federal, state and local government web resources and services.